Location: Bouchavesnes-Bergen
(49.9859°N, 2.9203°E)
Time: 23:47:01
(UTC+00:00)

Envisat - Pass Details

Date: 08 February 2023
Orbit: 763 x 765 km, 98.2° (Epoch: 28 March)

Event Time Altitude Azimuth Distance (km) Brightness Sun altitude
Rises 02:35:40 0° 28° (NNE) 3,244 6.9 -43.4°
Reaches altitude 10° 02:38:52 10° 49° (NE) 2,312 6.1 -42.9°
Enters shadow 02:40:08 14° 62° (ENE) 2,058 5.8 -42.8°
